RH
67 68 68 69 72 73 74 74 74 72 71 73 71 63 52 41 33 28 26 26 26 26 26 28 28 29 29 30 30 29 30 29 30 30 27 32 37 44 51 43 35 33 31 32 32 36 38 41 54 62 59 53 50 51 52 51 50 51 54 59 64 65 63 61 60 58 54 49 43 37 34 38 41 43 48 54 55 54 54 53 52 50 49 46 43
66 66 69 71 73 74 76 76 77 77 74 74 74 73 69 62 52 41 33 28 27 28 27 27 26 27 27 28 28 28 29 29 29 29 29 31 31 39 54 51 41 37 35 34 33 35 38 44 57 65 60 54 53 56 56 54 53 53 53 57 63 65 63 60 57 54 50 44 37 32 36 41 44 48 54 55 53 54 53 52 51 49 47 45 43
58 61 67 71 72 73 76 77 78 78 77 76 74 74 74 73 71 65 57 44 32 28 29 29 28 27 27 26 27 27 27 27 27 27 29 33 34 38 52 57 50 43 39 36 34 36 39 43 57 66 61 55 57 60 59 56 56 58 58 60 63 65 63 58 54 50 46 39 33 35 41 44 48 52 54 53 53 53 53 51 49 47 47 46 44
51 56 60 61 60 62 67 72 75 76 76 76 75 74 74 74 75 75 75 69 54 37 28 28 30 30 30 29 29 30 29 28 29 28 28 33 36 36 46 59 60 52 45 39 36 37 40 43 55 66 62 57 61 64 62 59 58 60 62 63 65 65 63 57 52 49 44 36 35 40 44 48 52 54 53 53 53 53 52 50 49 48 48 49 46
44 49 50 49 47 47 52 59 64 68 70 72 74 75 75 76 77 77 77 77 72 60 43 32 29 31 35 37 37 38 35 31 31 33 32 32 36 38 44 56 63 59 51 43 39 38 41 46 57 66 63 61 64 65 64 62 61 61 62 64 65 65 61 56 52 49 43 38 41 44 47 52 54 53 53 54 54 53 52 51 50 49 49 51 48
33 37 39 40 40 41 43 47 52 56 59 62 68 73 75 78 81 79 77 79 78 75 67 53 42 41 50 58 59 53 47 45 39 35 36 34 34 37 41 45 54 62 57 46 41 40 42 49 61 68 65 65 67 65 64 64 64 62 62 64 64 63 59 56 54 48 44 43 45 47 51 55 54 53 55 55 56 54 53 53 51 49 50 50 46
26 27 29 30 34 38 41 43 46 49 53 56 59 66 73 78 79 72 71 78 81 82 81 76 69 65 69 78 77 64 59 68 63 47 41 39 35 36 38 37 44 61 63 52 45 42 42 49 64 72 69 69 69 65 63 63 65 64 62 63 62 61 59 56 53 48 46 47 48 51 54 55 54 55 57 58 58 56 54 51 48 49 48 46 43
26 25 26 27 29 34 38 41 44 49 54 54 54 61 69 75 76 72 72 76 78 81 83 85 86 84 85 88 87 78 70 79 83 70 57 49 43 43 44 41 46 66 72 61 50 44 43 49 62 73 72 72 69 63 63 62 64 66 64 64 63 61 60 56 52 48 49 50 52 55 55 55 54 57 59 59 59 56 51 46 45 45 42 41 40
26 26 27 29 30 31 32 34 38 45 53 54 54 58 64 70 73 76 79 76 73 76 82 86 87 88 90 89 90 90 83 83 89 88 82 69 56 51 51 48 49 65 77 69 56 47 45 50 62 73 75 75 69 61 61 62 63 67 67 66 64 62 59 55 52 51 52 53 55 56 55 56 56 58 60 60 58 52 45 43 42 39 36 36 36
26 26 27 28 30 31 33 33 33 39 46 51 55 57 60 65 69 74 78 77 76 79 82 84 84 85 88 88 88 90 89 89 90 87 90 87 72 59 57 55 49 57 75 76 64 53 47 51 63 74 76 76 72 65 63 63 64 67 67 66 63 61 58 55 54 54 55 56 56 56 55 56 57 58 60 58 53 45 41 40 36 32 31 31 31
33 33 32 30 30 31 33 34 32 33 37 43 50 55 59 62 64 67 69 73 78 80 79 80 82 86 88 87 87 89 88 92 93 86 87 91 84 73 64 59 51 53 72 81 72 59 50 53 66 75 77 78 77 73 68 65 64 66 66 65 63 60 58 57 58 57 57 56 55 55 55 56 56 55 57 53 46 41 39 35 29 27 27 27 28
45 46 46 44 42 39 36 36 35 32 31 34 42 49 55 58 60 63 64 65 69 72 74 77 80 84 85 85 89 94 90 89 94 91 87 86 86 84 74 66 62 56 66 81 78 63 52 52 63 75 79 78 79 77 71 66 66 66 65 66 63 61 60 60 59 57 55 54 54 55 55 54 52 52 53 48 41 39 37 31 25 25 27 27 27
47 48 48 48 48 46 43 42 42 40 36 33 35 40 48 53 55 57 59 60 62 64 67 72 78 81 82 86 90 93 90 89 91 90 88 86 85 87 80 74 73 65 68 82 81 66 55 53 61 74 80 79 80 80 74 68 67 67 66 67 66 62 62 60 56 54 53 53 54 54 53 51 50 51 51 47 41 37 33 28 24 25 29 27 25
41 44 45 44 46 46 46 46 45 45 44 41 38 38 43 50 53 53 53 55 55 57 60 65 72 77 80 84 86 88 91 93 92 91 93 91 88 88 81 75 76 73 75 85 85 72 60 58 63 74 81 80 81 82 77 69 65 66 66 66 64 61 59 56 54 53 53 53 52 51 49 48 49 50 50 49 46 39 32 27 24 27 29 25 23
31 35 37 37 38 39 41 42 41 43 46 48 48 46 46 49 52 53 52 51 51 54 56 58 63 72 81 84 83 86 89 92 93 94 96 93 91 90 83 79 81 78 81 88 89 79 68 63 66 75 82 83 82 83 81 75 64 60 63 63 61 58 55 53 53 53 52 51 49 46 44 45 48 50 51 52 51 45 34 26 25 28 27 23 25
25 26 26 27 28 29 33 34 36 40 45 50 54 56 57 56 54 54 53 51 52 56 58 57 55 61 72 76 77 81 81 84 91 96 97 92 91 91 86 88 87 79 83 91 90 85 77 67 64 70 80 86 86 84 84 82 72 62 60 61 63 59 54 55 55 53 52 50 46 44 43 43 46 50 51 52 55 51 36 26 26 29 26 22 26
24 23 23 24 25 26 28 28 31 35 38 42 47 53 59 64 65 62 58 56 56 58 61 62 58 57 65 69 73 81 81 83 91 97 98 93 93 94 90 91 87 76 81 91 89 87 83 68 60 68 79 86 87 85 85 85 81 73 65 63 65 62 57 58 58 56 55 52 48 46 43 42 43 47 50 53 58 53 37 25 26 30 26 21 27
23 23 22 24 24 24 24 24 26 29 32 33 35 43 51 62 73 73 69 66 63 61 61 65 64 62 67 69 72 81 85 85 89 95 97 95 95 96 94 92 85 74 77 87 87 87 86 69 59 70 82 85 86 86 86 85 82 79 74 68 65 62 59 58 59 58 56 52 49 45 41 39 40 44 47 53 60 54 36 25 27 30 25 21 26
22 22 23 24 24 25 25 24 24 25 28 28 30 37 43 52 68 77 77 76 73 68 66 70 70 63 64 67 70 77 83 84 87 94 98 96 94 93 93 92 87 75 71 81 85 87 88 73 59 69 81 85 86 85 85 86 83 79 77 73 69 65 60 58 60 59 56 51 47 43 39 37 37 40 45 53 61 56 37 25 27 30 26 22 24
23 24 25 25 25 25 25 25 26 28 29 30 31 35 39 44 55 70 80 83 83 77 71 75 75 67 64 67 72 75 79 83 88 94 98 96 95 93 91 90 86 77 69 75 85 88 89 78 63 66 79 85 85 83 83 86 85 81 77 73 71 68 62 59 61 61 58 51 45 42 40 38 36 39 47 55 62 57 40 28 27 29 27 25 24
25 25 25 25 24 24 25 27 30 35 39 42 44 45 47 48 51 61 73 82 89 84 74 74 75 72 70 70 73 74 75 82 90 96 97 96 95 93 92 89 81 75 72 74 85 88 87 85 72 65 75 84 86 83 82 86 87 84 77 71 69 69 65 61 62 64 60 51 46 44 41 39 37 41 50 57 63 60 45 32 28 28 28 27 26
25 25 25 24 23 24 25 28 34 44 52 56 60 61 62 62 60 62 67 76 85 83 76 76 78 77 77 75 73 72 75 82 90 96 98 97 96 92 92 92 83 80 81 80 86 88 86 89 81 67 69 81 87 85 81 84 89 86 78 70 68 68 66 63 62 65 60 52 49 44 43 47 42 43 55 62 66 64 51 38 29 27 27 27 28
24 24 24 22 22 22 22 29 42 54 61 65 68 71 73 74 72 71 71 73 77 77 75 80 83 81 82 82 78 77 83 87 90 94 97 97 97 94 92 94 90 87 89 88 90 91 88 88 82 69 67 77 88 87 82 84 89 88 80 72 68 66 64 62 61 64 61 55 50 40 50 69 59 48 58 66 72 72 60 48 37 29 27 25 27
22 22 21 19 18 18 24 37 52 61 65 67 70 74 77 79 80 80 78 74 71 74 74 74 81 83 83 85 84 84 90 91 92 94 95 96 98 96 92 94 95 93 94 95 94 90 86 82 76 69 68 76 86 88 84 84 88 89 83 74 71 66 61 61 61 63 60 54 48 39 54 81 75 60 60 62 72 81 75 69 57 39 29 26 25
20 19 17 17 16 18 29 45 58 63 65 67 69 74 77 80 85 86 84 77 69 69 68 68 78 85 85 86 86 87 90 91 92 93 95 97 98 96 93 92 95 94 94 96 94 89 83 77 74 72 71 75 85 89 86 84 88 90 85 77 73 66 62 63 61 61 58 53 47 38 50 80 85 75 70 65 70 79 81 82 74 52 33 26 26
19 17 16 16 17 23 36 51 59 63 66 69 70 73 75 80 86 86 82 79 71 64 64 70 80 84 84 82 82 86 89 89 90 90 93 96 95 94 93 91 93 93 94 96 95 90 83 77 77 77 75 76 84 89 86 85 89 90 87 82 76 68 64 65 63 61 58 54 48 39 44 66 77 78 79 75 72 77 78 76 74 66 45 29 26
18 17 16 16 18 29 43 54 61 63 67 70 72 74 75 78 84 87 85 84 81 75 76 82 83 82 81 79 80 85 87 88 90 89 91 94 93 94 93 93 95 95 97 98 96 91 84 80 82 83 81 81 86 89 85 84 89 90 87 85 79 71 67 66 65 62 60 56 49 43 42 46 62 80 84 79 77 78 75 71 73 76 63 42 30
18 16 16 17 21 34 48 57 61 64 68 72 73 74 76 77 80 84 85 85 85 84 85 85 83 82 81 80 83 84 84 86 87 88 91 92 92 94 95 94 94 96 98 99 96 93 89 84 84 86 86 86 87 89 84 80 85 90 87 86 82 76 70 68 66 63 63 60 50 46 44 41 61 88 88 84 88 85 78 75 76 80 78 63 42
17 16 16 19 26 38 50 57 62 67 70 74 78 79 80 80 78 79 80 80 80 80 80 80 80 81 80 80 83 82 80 82 84 87 89 90 90 93 94 93 94 96 98 99 98 96 93 87 86 87 88 88 87 86 83 80 84 88 87 86 84 80 74 71 70 66 66 63 52 47 46 41 54 75 79 83 91 89 84 81 76 75 81 77 55
17 15 17 21 28 38 48 56 63 69 71 76 83 85 86 85 82 82 84 82 81 81 82 82 83 83 82 81 82 82 81 82 85 90 90 89 90 92 93 94 96 98 97 97 99 98 96 92 90 90 91 91 87 83 83 84 86 87 86 87 86 82 78 76 73 69 67 62 53 49 47 43 47 59 74 84 81 76 82 86 80 75 76 78 66
17 16 17 21 27 34 43 52 61 70 75 79 84 87 88 89 88 89 91 90 86 84 84 85 86 88 88 87 87 87 86 86 88 92 92 92 94 93 93 93 96 98 97 98 99 99 98 95 92 93 96 95 90 82 81 85 87 87 87 89 88 84 81 79 74 69 65 59 53 50 49 47 47 52 65 74 66 60 72 86 90 88 83 80 74
18 16 17 22 25 28 33 42 58 72 77 79 84 87 88 89 90 92 93 93 91 88 87 86 87 87 87 88 91 91 91 90 90 91 94 97 99 98 96 94 96 99 99 100 100 98 99 98 94 96 100 98 91 82 78 80 83 85 86 88 90 86 79 77 74 69 63 57 53 52 50 49 51 54 56 58 55 52 60 74 88 97 94 85 79
18 16 18 24 25 24 26 34 52 70 76 79 83 85 87 88 89 92 92 91 92 92 90 89 86 83 83 87 94 97 97 97 96 97 98 98 98 99 98 96 97 99 99 100 100 99 99 98 96 98 99 95 88 81 79 79 82 85 86 86 88 85 79 75 73 70 63 56 54 53 52 50 52 56 58 55 53 53 56 68 83 94 99 91 81
19 17 20 27 26 26 28 33 49 67 76 81 83 82 85 87 88 90 90 90 91 90 90 89 86 86 87 89 96 98 97 99 99 99 100 100 98 98 98 98 99 100 100 100 100 99 98 97 98 99 98 95 88 82 81 82 84 87 85 83 85 84 81 78 74 70 65 58 56 56 55 53 52 55 59 57 57 57 55 61 72 82 91 90 81
20 18 21 28 28 28 30 34 49 68 78 80 80 79 82 85 86 88 90 91 91 90 89 89 88 90 89 88 91 93 92 96 99 98 99 101 99 98 98 99 99 98 97 98 100 99 96 95 98 99 98 95 90 84 81 80 82 86 85 82 84 83 79 80 78 73 67 59 58 60 57 56 56 56 60 60 61 63 58 55 66 78 84 81 72
21 20 22 27 28 31 35 36 47 67 79 79 77 78 82 85 86 86 87 89 90 90 89 89 90 93 91 89 92 94 94 97 98 98 99 100 98 99 100 99 99 98 96 97 100 100 98 98 99 100 97 94 89 84 80 78 80 85 83 81 86 84 78 81 82 75 68 61 60 63 61 60 59 59 62 62 62 67 63 56 65 76 79 72 60
23 24 23 25 27 31 36 37 43 59 74 79 78 80 84 86 86 85 87 89 91 91 90 88 90 92 93 93 95 96 98 99 99 98 99 99 97 97 98 98 99 99 98 97 98 98 99 99 99 99 96 91 90 85 80 81 84 84 81 80 85 85 82 86 86 74 67 63 62 65 64 63 62 60 62 62 60 61 60 55 56 60 66 66 52
26 26 25 25 27 29 32 35 40 51 64 73 77 79 83 87 88 87 88 91 91 90 89 87 88 89 91 95 97 96 95 96 98 99 99 99 99 97 98 98 99 100 99 97 97 98 99 99 99 99 94 89 90 87 81 82 84 82 83 83 84 84 84 90 86 72 65 67 72 74 70 65 63 61 60 58 56 52 52 53 47 42 52 59 46
26 27 28 28 29 28 29 33 41 47 53 61 71 77 81 85 89 90 91 92 91 90 89 88 88 88 89 92 93 93 93 93 95 98 98 98 99 99 99 99 99 100 100 100 99 98 98 99 100 100 96 91 90 89 86 86 85 84 85 87 86 85 87 91 85 71 68 78 85 83 77 69 64 62 59 55 50 43 39 37 30 26 38 47 35
25 26 28 29 29 29 29 33 42 49 51 55 66 75 80 85 91 94 95 96 96 95 93 91 90 88 88 88 88 90 94 94 91 92 95 97 98 99 98 99 100 100 99 100 100 99 98 99 100 100 97 92 91 92 92 92 90 87 86 86 87 87 89 89 81 70 70 80 84 79 73 67 62 59 55 46 37 30 23 18 13 14 23 26 18
25 25 26 27 29 30 30 32 39 45 49 54 61 69 75 80 89 96 98 99 100 99 98 97 94 91 89 87 85 85 88 91 90 90 92 94 95 96 96 98 100 99 98 99 100 100 99 99 100 98 93 90 91 92 92 91 88 87 88 89 88 89 89 85 78 71 70 72 72 69 64 59 55 51 44 34 24 18 13 9 9 10 12 12 10
25 25 25 27 29 32 32 33 35 37 42 51 58 64 70 76 86 95 99 99 99 100 100 99 98 97 93 90 88 85 84 87 90 91 91 92 93 95 96 98 98 96 96 97 98 98 98 98 98 96 91 90 91 91 91 90 87 89 92 88 85 88 87 80 74 71 68 63 60 56 51 46 41 35 29 23 17 13 10 9 9 9 8 9 11
27 26 27 29 31 34 35 36 38 39 42 49 55 60 69 79 89 96 99 99 99 100 100 100 100 99 98 96 94 91 90 91 92 92 92 94 95 95 97 99 99 98 97 98 99 98 97 95 94 92 91 92 92 92 93 93 91 93 92 87 86 89 86 79 74 68 62 56 50 45 39 32 26 22 20 18 14 13 15 17 18 18 18 21 26
30 29 31 32 34 36 39 41 45 46 46 49 54 59 69 81 89 92 95 96 97 98 98 98 98 99 99 99 97 96 94 92 92 94 96 96 95 96 98 99 99 100 99 99 99 98 96 94 93 92 91 92 95 94 94 94 94 95 92 88 89 92 87 81 76 66 55 48 40 33 29 24 21 21 22 21 21 25 30 33 36 38 40 44 49
32 32 34 38 40 44 49 51 52 51 50 53 57 61 70 80 86 88 90 91 91 92 93 93 94 97 99 98 96 96 95 93 94 97 97 96 97 98 98 98 97 98 99 99 99 98 96 94 94 94 93 94 97 96 94 94 93 95 93 87 87 93 90 81 73 61 50 41 33 28 26 25 26 28 30 32 37 43 47 49 53 56 59 62 64
35 37 40 45 50 54 57 57 55 54 54 56 59 61 65 68 73 79 82 82 81 83 85 87 88 92 96 97 96 96 95 95 97 98 98 97 98 99 98 97 96 97 98 98 99 98 96 93 92 93 95 95 94 93 94 95 93 94 94 89 89 93 89 78 68 58 48 39 34 30 30 34 38 41 44 49 55 61 65 67 69 71 73 76 76
39 41 46 53 58 61 61 59 59 60 59 60 64 68 70 67 66 69 72 73 75 77 78 80 82 82 85 89 92 93 94 96 98 98 99 99 99 99 99 98 98 97 97 97 97 96 95 93 91 91 92 92 90 90 93 94 94 95 97 95 94 93 88 81 75 67 58 49 44 42 44 50 55 58 62 67 72 76 79 81 83 86 88 89 89
42 45 52 58 61 62 63 64 66 67 66 66 69 73 77 77 75 74 73 74 76 77 77 76 77 78 77 79 81 84 91 99 100 99 99 100 100 99 98 98 97 96 97 99 98 97 94 92 91 90 90 90 89 87 89 94 96 97 99 99 98 96 93 92 90 83 73 64 60 62 66 69 72 76 81 85 88 91 92 94 95 97 97 97 97
49 53 58 59 58 60 62 65 67 67 66 68 70 71 74 78 80 81 81 79 78 78 76 74 74 75 76 76 76 77 83 93 97 95 94 95 97 99 100 99 98 97 97 97 98 98 98 96 94 92 91 89 85 82 85 92 98 99 100 100 99 98 97 97 97 94 88 82 78 79 84 88 91 93 95 97 98 99 99 99 100 100 100 100 100
53 56 57 55 55 57 59 59 60 59 59 61 64 66 68 69 70 72 74 75 75 74 73 73 73 73 74 76 77 76 77 80 82 83 83 83 86 92 97 98 99 99 99 98 97 98 99 100 99 97 96 93 91 88 89 92 96 99 100 99 99 99 99 98 99 99 98 96 94 92 95 98 99 99 100 100 101 100 98 97 98 100 100 100 100
52 52 52 52 52 53 53 53 52 51 52 53 53 54 55 54 54 54 56 59 60 61 62 64 65 66 67 68 71 73 76 77 76 75 75 75 76 80 86 91 94 96 98 99 99 100 99 99 100 99 99 98 97 97 97 97 97 98 99 99 99 100 100 99 100 100 99 100 99 98 99 100 100 101 100 99 98 97 94 92 95 98 100 100 100
Wind_Speed
10 10 10 11 11 11 12 14 15 15 16 18 20 21 23 25 26 27 27 27 26 25 25 26 26 26 25 25 25 24 23 23 22 22 22 21 21 21 20 19 19 18 17 17 16 16 16 16 15 14 14 15 15 15 15 14 13 13 14 13 13 12 12 11 11 11 11 10 10 10 8 6 5 3 3 3 3 3 3 3 3 4 4 4 4
10 10 10 10 10 10 11 13 15 16 16 17 18 20 22 24 25 27 28 28 28 27 27 27 27 28 28 27 27 26 26 24 24 24 24 24 23 21 20 20 20 19 18 17 17 17 17 16 15 15 15 15 15 14 13 12 12 12 12 12 12 11 10 10 9 9 9 9 9 7 6 4 3 2 2 3 3 3 3 3 4 4 4 4 3
11 11 10 10 10 10 10 11 13 15 17 17 18 19 20 22 24 26 28 30 30 29 29 29 28 29 29 29 28 28 28 27 25 25 26 26 24 22 21 22 22 21 20 18 17 17 17 16 15 16 16 15 15 14 12 11 11 11 11 11 11 10 10 9 8 8 7 7 7 6 4 3 2 2 2 3 3 3 3 4 4 4 4 4 3
11 11 10 10 10 11 11 11 12 14 16 18 19 19 19 20 22 24 26 28 30 31 31 31 30 29 30 30 30 29 29 29 28 27 28 27 25 23 22 22 23 23 21 19 18 18 18 16 15 16 16 15 14 13 12 10 10 10 9 9 10 9 9 8 7 7 6 6 6 5 3 2 2 2 2 3 3 4 4 4 4 4 4 3 2
10 11 11 11 11 12 11 11 11 12 13 15 18 20 20 21 22 22 23 26 28 30 32 34 33 32 32 33 32 31 30 30 30 28 28 28 26 24 23 23 24 25 23 20 18 17 17 16 15 15 15 14 13 12 11 10 9 9 8 9 9 9 8 8 7 6 5 5 5 4 2 1 1 1 2 3 4 4 4 4 4 3 3 3 2
11 11 11 11 11 12 12 12 12 13 12 13 15 18 20 22 23 23 21 24 26 28 32 34 35 35 35 34 34 33 31 31 31 30 29 29 28 25 24 24 26 27 25 21 19 17 16 16 15 15 14 14 13 12 11 10 9 8 8 8 8 8 8 8 7 6 5 5 4 3 1 0 1 1 3 3 4 3 4 3 3 3 2 2 2
11 12 12 12 12 12 12 13 14 14 13 13 14 15 17 20 23 23 21 23 25 27 30 32 34 36 36 35 34 34 33 32 31 30 30 30 28 26 25 25 26 27 25 21 20 17 16 15 14 15 14 14 13 12 10 9 8 8 8 8 8 8 8 7 6 5 4 4 3 2 1 0 1 2 3 3 3 3 4 3 3 3 2 2 2
12 13 14 15 14 14 14 14 15 15 14 14 15 15 16 18 20 20 22 23 25 27 27 29 32 33 34 33 32 34 34 34 32 29 29 29 28 26 25 25 24 25 24 21 20 18 16 15 14 14 14 13 12 11 10 8 7 7 7 8 7 7 7 6 5 5 4 3 2 1 1 0 1 2 3 3 3 4 3 3 3 3 2 2 2
14 14 15 16 17 16 16 16 16 16 16 16 16 16 17 18 18 19 21 21 22 23 24 26 27 27 29 30 32 34 34 34 33 31 29 27 26 24 25 25 23 23 24 22 20 19 16 15 14 14 13 12 11 10 9 8 6 6 7 7 7 7 6 6 5 4 4 3 2 2 1 1 2 3 3 4 4 4 3 3 3 3 3 2 1
16 16 16 17 18 18 18 18 18 18 18 18 18 18 18 19 18 19 21 21 20 21 22 23 23 23 26 27 28 31 32 33 33 32 30 26 25 24 24 25 23 23 24 23 21 19 17 15 14 13 12 11 10 9 9 7 5 5 5 6 6 6 5 5 4 4 3 3 2 2 2 2 3 3 4 5 5 4 3 3 4 4 3 2 1
17 17 17 17 18 18 18 19 20 20 20 20 20 20 20 20 20 19 21 21 22 23 23 23 22 22 24 24 25 28 30 31 31 31 29 28 27 25 24 25 24 23 24 24 22 20 18 16 15 13 11 10 9 9 8 7 5 4 5 5 5 5 5 5 4 4 3 3 3 3 3 3 3 4 5 5 5 4 4 4 4 4 3 2 2
16 16 16 17 18 18 19 20 21 22 22 22 22 22 22 22 21 21 21 21 22 22 23 23 22 22 23 24 25 27 28 29 29 29 28 30 30 26 24 25 25 24 25 26 23 20 19 17 16 14 11 10 9 9 8 6 5 4 5 5 5 5 5 5 4 4 4 4 4 3 3 3 4 5 5 5 5 4 4 4 4 3 3 2 2
16 15 16 18 18 19 19 21 23 24 24 24 24 25 24 24 23 23 23 23 23 22 22 23 23 23 24 24 26 26 27 28 28 29 29 31 31 28 26 26 26 25 25 26 24 21 20 18 16 15 12 10 10 9 8 6 5 5 5 6 6 6 5 5 4 4 4 4 4 4 4 4 4 5 6 5 5 4 4 4 4 3 3 2 2
15 16 17 18 18 19 21 23 24 25 25 25 25 26 26 26 25 25 25 25 25 24 23 24 24 24 24 24 26 26 27 28 29 29 30 31 32 31 29 27 26 25 24 25 24 21 20 18 16 15 13 11 10 10 8 6 6 6 6 6 6 6 5 5 5 5 4 4 4 4 4 4 5 5 6 5 5 4 4 4 4 3 2 2 2
14 15 16 18 19 20 22 24 25 26 26 25 25 25 27 27 28 27 27 27 27 26 25 24 24 24 25 26 27 27 28 28 29 30 30 30 32 32 30 28 26 26 25 24 23 21 19 18 16 15 14 12 11 11 10 8 6 6 7 7 7 6 6 5 5 5 5 5 5 4 4 4 5 5 5 5 5 4 4 5 4 2 2 2 3
14 15 16 18 20 21 22 24 25 26 27 27 26 26 27 28 29 29 29 29 29 28 27 26 25 25 27 29 29 29 29 27 27 28 29 29 31 31 30 28 27 27 25 23 23 23 20 18 17 16 15 13 12 12 11 9 8 7 7 7 8 7 6 6 6 6 6 6 5 4 4 4 5 5 6 5 5 4 5 5 4 2 2 3 4
15 16 17 19 20 22 23 24 25 26 27 28 28 28 28 28 29 29 30 31 30 30 29 28 27 27 28 30 30 30 29 27 27 28 28 29 29 30 31 30 28 27 26 23 23 24 22 20 18 17 16 15 14 13 12 11 10 9 8 8 8 7 7 7 7 7 7 7 6 5 4 4 4 5 6 6 5 5 5 6 4 2 2 4 5
16 17 18 19 20 22 23 24 25 27 28 30 31 31 30 29 29 30 30 31 32 32 31 29 28 28 29 30 30 31 30 30 29 29 29 29 29 30 31 31 29 29 28 26 24 25 24 21 19 19 18 17 16 14 13 12 11 10 10 10 9 8 8 8 8 8 8 7 6 5 5 4 5 5 6 6 6 6 6 6 5 3 3 4 5
17 18 19 19 20 21 23 24 26 28 30 32 33 34 33 32 31 32 31 31 32 33 33 32 31 30 30 30 30 31 31 31 30 29 30 29 29 29 30 29 29 30 30 27 25 25 26 23 21 20 20 18 17 15 14 13 12 11 11 11 10 10 10 9 9 8 8 7 6 5 5 5 5 5 6 7 7 7 7 7 6 4 3 4 5
18 19 20 21 21 23 24 26 28 30 31 33 34 35 36 35 34 34 33 33 32 33 33 33 33 33 32 31 31 31 32 32 30 30 30 27 27 27 27 28 29 30 30 28 26 27 27 25 22 22 22 20 19 17 15 14 14 12 12 12 11 11 10 10 9 9 8 7 6 5 5 5 5 6 6 7 7 7 7 7 7 5 4 5 5
19 20 21 22 24 26 27 29 30 30 31 32 33 35 37 37 37 36 35 35 34 33 33 33 34 33 33 32 32 32 32 32 30 30 30 26 25 26 26 27 28 29 30 29 27 27 28 26 24 23 23 22 21 19 17 16 15 14 14 13 13 12 11 11 10 9 8 7 6 6 5 5 6 6 7 7 7 7 7 7 7 6 5 5 5
20 22 23 25 26 29 30 31 31 31 31 31 31 33 35 37 38 39 38 36 35 34 33 33 33 33 33 33 33 32 31 32 31 30 29 26 26 27 27 28 29 28 28 28 28 28 28 27 26 25 24 24 23 21 19 17 16 16 15 15 14 13 12 11 10 10 9 8 7 6 6 7 7 7 8 8 8 7 7 6 7 6 6 5 5
22 24 25 27 28 30 32 32 31 30 29 28 29 30 31 33 35 38 40 38 36 35 34 33 32 33 33 32 32 31 29 29 29 30 30 28 27 29 29 29 28 27 27 28 28 28 28 28 27 26 26 25 23 22 20 18 17 18 17 16 16 14 13 12 11 11 10 9 8 8 8 9 9 8 8 9 9 8 7 7 7 7 7 6 6
23 25 26 28 30 31 33 32 30 28 27 27 28 28 28 29 29 32 36 36 35 35 34 33 32 33 32 31 31 31 29 28 29 31 30 29 28 29 29 28 27 28 27 27 29 29 30 29 27 27 27 26 24 23 22 20 19 19 18 17 16 15 14 13 12 12 11 10 10 9 9 11 11 9 9 9 10 10 9 8 7 7 7 7 6
23 25 26 28 30 32 32 30 29 28 27 27 27 26 26 26 26 26 28 30 32 34 34 33 31 30 31 30 30 30 30 29 30 31 30 29 31 32 31 28 27 28 28 28 29 29 30 29 28 28 28 27 26 25 24 22 21 20 20 18 17 16 15 15 14 13 12 11 11 10 10 13 12 11 11 11 10 10 9 9 9 8 8 8 8
23 25 26 28 30 31 31 30 29 28 27 26 25 24 24 24 23 21 20 21 25 29 31 30 29 29 30 29 28 28 29 29 29 30 30 31 33 33 32 29 28 29 30 29 29 30 30 29 28 28 29 29 28 27 26 24 22 22 21 20 19 18 17 16 15 14 14 13 12 11 12 14 14 13 12 11 11 10 9 9 9 9 9 9 9
24 25 27 28 30 30 29 29 29 28 26 25 23 21 22 22 20 18 16 17 20 23 25 25 26 27 27 27 27 26 27 28 28 28 29 30 30 31 32 30 29 30 32 32 31 31 30 28 28 28 28 29 28 28 27 25 23 23 22 21 20 19 18 18 16 16 15 14 13 12 13 13 14 14 13 11 11 11 10 9 9 10 10 10 10
24 25 27 28 29 29 28 28 28 27 26 25 22 20 20 20 19 17 16 16 18 20 21 22 23 24 24 25 26 25 25 27 27 27 29 29 26 30 32 31 29 31 33 35 34 32 31 29 28 28 27 27 27 28 27 26 25 25 24 23 21 20 19 18 17 17 15 15 14 14 14 13 14 16 15 14 13 12 12 11 10 11 11 11 11
24 25 26 27 28 28 27 28 28 27 25 23 21 20 19 19 18 17 15 16 17 18 20 21 21 21 22 23 25 25 24 25 27 27 28 29 26 29 33 32 31 32 34 35 35 34 33 30 27 26 26 26 27 28 28 27 26 26 26 25 23 21 20 19 18 17 16 15 15 15 16 15 15 17 16 16 16 14 14 13 11 11 12 12 13
24 24 26 26 27 26 26 27 27 26 24 22 21 20 18 16 15 15 15 15 15 16 17 18 18 19 21 22 24 25 24 25 26 26 28 29 29 31 33 33 32 33 33 35 35 34 33 33 29 26 25 25 27 28 28 27 27 28 27 25 24 22 21 20 19 18 17 16 16 16 17 17 17 17 17 19 18 16 16 17 15 14 13 12 14
24 24 25 25 25 25 25 25 26 25 24 22 21 19 18 16 13 13 13 13 13 13 15 17 18 19 20 22 24 24 23 24 25 26 27 29 31 33 34 34 34 32 33 36 37 34 34 35 31 26 25 26 27 28 28 27 28 29 27 26 25 23 22 21 20 20 18 18 18 18 18 18 18 19 20 21 20 17 17 18 17 16 15 14 15
24 24 24 24 25 25 24 24 24 23 23 21 19 18 17 17 15 13 12 12 11 11 13 16 18 19 20 21 22 23 23 23 24 26 26 27 31 34 35 35 35 33 34 37 38 36 36 35 31 28 27 27 27 28 28 28 28 29 28 27 25 25 24 23 22 21 20 19 19 19 19 19 19 20 20 20 19 17 16 17 17 18 17 16 17
24 24 23 23 23 23 24 24 23 22 22 20 18 17 17 17 16 15 14 13 12 12 12 15 17 19 20 19 18 19 20 19 20 23 25 26 29 33 35 35 35 35 35 36 37 36 35 33 31 30 29 28 28 29 29 28 28 28 28 27 27 27 26 24 23 22 20 20 19 20 20 20 20 20 20 20 19 17 17 18 18 18 18 18 18
24 23 23 22 23 23 23 24 23 22 20 18 18 17 17 16 16 16 16 15 15 13 13 15 16 16 16 15 15 17 18 17 17 19 22 24 25 27 31 33 34 35 34 34 34 32 30 29 29 30 29 29 29 28 27 27 26 28 28 28 28 28 27 26 24 23 21 20 20 21 21 21 21 20 20 20 19 18 19 19 18 19 19 20 20
23 23 22 22 22 22 23 24 23 21 18 17 18 18 17 16 15 15 16 16 16 15 15 16 16 17 16 14 13 14 15 16 17 16 18 22 24 24 29 32 34 34 33 32 32 30 28 29 28 28 27 27 27 26 27 27 27 28 29 28 28 29 28 27 25 23 22 22 21 22 22 22 21 21 21 20 20 20 20 19 19 20 21 21 22
23 24 23 22 22 22 22 22 22 20 17 16 18 18 16 16 15 14 14 15 16 16 16 16 15 16 17 16 14 12 10 10 11 13 15 19 17 17 25 31 30 30 30 30 30 29 28 28 27 26 26 25 25 25 27 27 26 27 28 27 28 28 27 26 25 24 23 22 23 23 23 22 22 21 21 21 20 21 21 21 22 23 23 23 24
23 23 23 22 22 22 21 21 20 19 17 17 17 16 15 15 14 14 14 14 16 17 17 16 14 14 15 15 14 11 9 9 9 12 14 17 16 15 20 23 20 21 26 29 29 29 27 27 25 25 26 25 24 25 26 25 24 26 27 27 27 27 26 26 26 25 24 24 24 24 23 23 22 22 22 22 22 22 22 23 23 24 24 24 24
22 22 22 22 21 22 21 20 19 19 18 17 16 15 14 14 13 13 13 14 15 16 17 17 15 14 13 13 12 10 9 9 9 10 12 15 17 18 19 19 17 18 22 25 26 26 24 24 24 25 26 26 24 24 25 24 23 25 27 28 28 28 27 27 26 25 25 25 25 24 23 23 22 22 22 22 23 23 23 23 23 24 25 25 24
21 21 21 21 21 21 21 21 20 19 18 17 17 15 14 13 13 12 12 13 14 15 16 16 17 16 14 12 11 10 9 9 9 9 10 10 11 12 13 15 17 19 18 17 19 20 19 20 22 22 24 24 24 24 24 25 26 27 28 29 29 29 28 27 26 26 26 26 25 24 24 23 23 23 23 23 23 23 24 24 24 25 25 25 24
20 20 21 21 21 20 21 21 20 19 18 17 17 16 14 13 12 13 13 14 14 15 15 15 16 16 16 14 12 10 9 10 10 9 8 8 8 8 8 8 10 13 14 13 16 17 17 18 20 20 21 21 22 23 24 25 26 26 26 28 29 29 28 26 27 27 27 27 27 26 25 25 24 24 25 25 24 24 24 24 23 24 24 24 24
20 21 21 22 21 20 20 20 19 19 18 17 17 16 15 13 12 13 14 15 15 15 15 15 14 15 15 16 14 12 11 10 10 10 9 8 8 8 7 6 6 8 10 12 15 16 15 16 17 19 20 20 20 22 22 23 24 24 24 27 30 30 28 27 27 28 28 28 28 27 26 26 25 25 25 24 24 23 23 22 22 22 23 23 24
21 21 22 22 22 21 20 19 19 19 19 18 17 17 17 15 13 13 14 15 16 16 15 14 14 14 14 15 15 15 14 12 11 10 10 9 9 9 8 7 7 8 9 11 13 15 16 17 17 18 20 21 21 21 21 22 24 25 26 29 30 30 30 30 29 29 28 28 27 27 27 26 26 25 24 23 23 22 22 21 21 21 22 23 23
21 21 22 22 21 21 20 19 18 19 18 17 17 17 17 15 14 14 14 15 15 16 16 16 15 15 14 14 14 15 15 14 13 12 12 11 10 9 8 9 9 9 10 10 12 15 17 17 18 19 22 22 21 22 22 23 25 26 28 31 31 31 31 30 30 29 28 27 27 27 26 26 26 25 24 23 23 22 22 21 21 21 22 22 22
21 21 21 21 20 21 21 20 19 19 18 18 17 17 15 13 13 13 14 14 15 16 17 17 17 16 15 14 13 13 13 13 13 13 12 12 12 10 10 11 11 11 12 12 13 15 16 17 18 21 22 22 22 22 23 25 26 26 30 33 34 34 32 28 27 27 26 26 26 26 26 26 26 25 24 24 23 22 22 22 22 22 22 22 22
20 20 20 20 19 19 20 19 19 19 19 18 17 15 13 12 12 12 13 13 14 14 15 15 15 15 14 13 12 11 12 12 12 11 11 11 12 11 12 13 13 13 14 13 14 15 16 17 18 19 20 21 22 23 24 27 28 29 33 35 35 34 31 26 25 25 24 25 25 25 26 26 25 25 24 23 22 22 22 22 22 22 23 23 23
19 19 18 18 18 18 17 17 18 18 19 18 17 15 13 13 12 12 11 12 13 14 14 13 13 13 13 14 13 12 12 12 11 11 11 11 10 10 10 11 12 13 14 14 15 15 15 15 15 16 17 19 20 23 26 29 29 30 34 36 33 31 27 25 25 26 25 25 25 25 26 26 25 24 23 22 22 22 22 23 23 24 24 24 25
18 17 17 16 16 17 17 17 17 17 17 17 16 16 14 14 13 12 12 13 13 14 15 14 12 12 12 13 14 14 13 12 11 11 12 12 11 10 9 9 10 11 12 13 15 15 15 15 15 15 16 17 20 23 26 27 28 29 32 32 29 27 26 26 27 27 28 28 27 27 27 26 25 24 23 23 23 23 23 24 24 25 26 26 27
16 15 15 15 15 16 16 17 17 17 16 16 16 15 14 14 14 13 13 13 14 13 13 14 13 13 13 13 13 13 11 8 8 9 10 11 12 12 12 11 11 10 9 10 14 17 17 18 17 17 18 18 19 21 22 24 25 28 31 31 29 28 27 27 28 28 29 30 30 30 29 27 26 25 24 24 24 24 25 25 26 27 27 28 29
14 14 14 14 15 15 16 16 16 16 16 16 15 15 15 14 14 14 13 14 14 13 12 12 13 13 13 13 12 12 11 9 8 9 10 11 12 13 13 12 12 12 10 10 13 15 17 18 18 18 18 18 19 19 19 21 23 27 30 31 30 30 28 28 29 30 31 32 32 31 30 28 27 26 26 26 25 25 25 25 26 26 27 29 31
13 13 14 15 15 16 16 15 15 15 16 16 15 15 15 15 15 14 14 14 14 15 14 14 14 14 14 14 13 12 11 11 13 14 15 16 15 14 13 13 12 13 14 14 15 14 13 14 16 16 16 16 18 19 18 19 21 25 27 28 28 28 28 28 30 31 32 33 33 31 30 29 28 27 27 26 25 25 26 26 27 28 29 31 32
12 13 14 14 15 15 15 15 15 15 15 15 14 14 14 14 14 14 14 14 14 15 15 15 16 16 16 16 16 15 14 13 13 15 16 17 17 17 16 15 15 15 15 15 15 14 12 13 15 16 14 10 11 15 18 19 21 22 23 24 26 27 28 29 31 31 30 31 32 31 29 28 27 26 26 26 26 27 28 29 29 30 31 33 35
Wind_Direction
295 292 287 282 278 275 271 270 271 268 263 259 256 253 252 253 255 257 257 257 257 257 257 258 259 261 264 266 268 270 272 272 275 278 281 281 284 290 288 287 291 295 298 302 307 312 313 311 308 306 305 303 301 298 294 291 289 285 281 280 280 281 283 285 288 291 295 301 306 306 306 311 325 349 22 48 56 59 59 59 58 52 46 38 27
299 295 290 285 282 278 273 272 273 272 267 263 261 258 255 254 254 256 257 257 258 259 259 259 259 260 262 263 265 268 270 270 272 275 278 279 281 286 286 285 287 291 294 298 304 309 311 310 309 308 307 306 304 300 296 293 290 285 281 278 277 278 280 284 286 289 295 300 302 302 303 311 330 5 37 53 62 68 73 77 75 65 53 46 37
302 299 294 290 288 284 280 279 278 277 273 266 264 261 259 257 255 256 257 258 258 259 260 261 261 261 262 263 263 264 266 269 269 271 274 276 279 281 283 284 285 287 290 294 301 307 308 309 309 308 307 306 305 301 297 293 290 286 280 276 274 274 276 280 284 287 293 297 296 295 301 314 339 18 42 59 70 76 81 84 82 75 58 46 42
304 301 299 298 297 294 290 287 282 280 277 272 267 264 262 261 258 256 256 257 257 258 259 260 261 260 260 261 262 263 264 266 267 267 269 273 277 279 281 282 283 286 288 291 297 303 306 308 309 309 307 306 305 303 298 291 287 284 280 275 271 270 271 274 278 284 289 291 288 288 297 317 348 25 53 70 78 83 86 85 82 74 57 48 49
306 305 306 306 305 303 299 293 288 285 282 278 273 269 267 265 262 258 256 258 259 258 259 260 261 262 262 263 263 263 263 265 265 265 267 271 274 276 277 277 281 285 286 286 291 297 302 306 309 308 307 306 306 304 298 290 283 280 277 274 269 266 267 269 273 279 282 281 281 283 292 321 4 45 72 82 88 89 86 85 81 69 60 64 84
314 311 309 308 305 303 300 295 290 288 286 282 277 271 269 266 264 262 258 258 260 259 259 260 261 262 263 265 265 263 263 264 264 265 266 268 270 272 275 276 279 282 281 281 285 291 298 303 306 306 306 306 305 303 297 287 278 274 271 268 266 265 265 268 270 273 274 273 275 278 285 328 49 83 93 95 96 96 93 91 83 72 77 97 119
320 315 310 305 299 295 291 290 288 287 286 283 279 274 270 267 267 271 268 262 262 261 261 262 262 263 264 264 264 261 260 260 260 260 263 265 268 271 274 277 279 278 275 277 282 286 293 299 301 302 303 304 303 301 295 285 274 267 265 262 261 262 262 265 267 265 263 264 269 275 281 309 115 109 106 105 104 105 103 98 88 88 103 120 133
318 313 307 301 297 292 288 287 289 290 290 288 285 280 275 270 269 274 274 269 266 265 265 265 263 264 266 266 264 260 256 256 257 256 257 260 263 267 271 276 278 274 271 274 279 282 289 294 295 297 300 301 302 299 292 282 271 263 260 257 255 255 255 258 259 257 256 259 263 265 255 188 138 123 113 112 114 115 112 106 102 107 117 128 142
315 308 302 298 296 295 293 292 290 291 291 291 289 284 279 276 273 272 272 273 270 269 269 269 269 268 266 265 265 263 256 253 255 256 255 254 256 262 268 273 275 271 269 272 275 279 286 289 289 291 295 298 299 297 289 278 268 259 254 250 246 245 247 249 250 250 252 252 247 243 227 183 147 129 122 122 124 121 114 112 114 118 122 122 128
311 305 299 295 293 293 294 293 290 287 285 286 285 282 279 277 275 273 273 274 273 270 268 272 277 274 269 266 264 263 257 252 253 255 256 254 252 257 262 267 270 269 267 268 271 276 281 284 283 284 287 291 295 293 285 274 264 253 246 241 238 237 239 243 245 247 247 243 233 223 209 178 150 134 130 132 129 123 115 116 118 117 110 96 78
306 302 299 296 294 292 291 290 288 285 282 280 279 277 275 273 273 273 274 275 276 277 275 274 275 273 272 271 267 265 261 256 253 253 255 256 255 255 258 262 266 267 265 265 268 272 276 279 277 277 279 281 285 287 281 269 256 246 239 235 235 235 235 237 238 238 235 229 221 208 195 173 151 139 136 137 131 125 120 119 119 108 88 62 50
302 299 298 297 294 292 291 290 289 287 284 280 278 276 274 272 271 270 271 273 273 275 278 278 277 276 275 272 269 268 265 260 256 253 252 256 259 257 255 259 262 265 265 261 263 266 270 273 271 270 272 273 275 280 279 267 249 239 234 232 234 233 230 229 225 224 223 218 210 194 183 169 151 142 139 138 135 131 130 126 120 99 67 39 32
299 297 299 299 296 292 293 294 294 292 289 284 281 278 276 275 272 270 271 270 269 269 271 274 275 276 277 275 272 270 268 263 260 257 254 254 258 257 255 256 259 264 265 259 258 261 265 267 266 265 264 264 268 270 271 262 244 233 229 227 229 227 221 217 210 209 211 206 198 184 176 166 154 149 144 142 140 139 141 137 125 98 62 36 30
300 300 302 303 300 296 295 295 294 292 289 285 283 280 279 278 276 274 273 272 272 271 270 271 272 274 276 275 273 273 272 268 265 262 257 254 254 253 254 253 254 260 260 255 254 255 260 261 261 262 258 257 261 261 260 256 241 227 224 223 221 217 210 207 204 200 200 198 191 182 176 168 161 156 152 150 148 151 155 149 134 107 76 57 71
305 303 302 302 300 299 297 295 294 292 290 287 283 281 279 278 278 276 275 275 275 274 272 271 271 272 272 271 271 272 270 268 267 264 259 256 253 251 253 251 250 253 252 251 253 252 254 257 257 259 257 252 254 255 253 249 237 222 218 219 216 211 205 202 200 194 193 193 188 184 180 173 167 163 161 159 158 164 167 160 145 121 87 79 103
308 305 302 301 300 299 297 295 295 293 292 291 287 284 280 278 277 277 276 275 274 273 271 269 269 269 269 270 271 271 271 271 270 267 262 258 253 248 249 249 248 251 249 247 251 250 250 253 256 257 255 251 251 251 246 241 236 225 218 219 217 213 209 203 199 194 191 193 193 191 189 182 176 173 172 170 167 176 179 170 157 136 97 89 111
308 307 305 302 300 298 296 295 294 293 291 291 289 286 283 279 275 274 273 273 272 271 269 268 269 270 269 271 272 272 274 275 270 266 264 260 253 246 245 247 246 249 249 246 248 249 248 250 253 254 252 249 247 245 241 238 236 230 222 220 219 217 215 208 202 198 194 196 201 203 202 199 191 185 181 176 177 188 187 176 166 149 106 97 113
310 309 306 302 300 298 297 297 296 295 292 290 289 286 283 279 275 272 271 271 271 270 269 268 267 268 268 271 273 272 273 273 270 268 266 260 251 243 242 244 244 244 246 247 247 247 247 248 249 249 247 245 242 240 240 239 237 232 225 221 220 218 217 212 206 203 201 203 210 214 214 212 204 194 186 180 183 194 190 180 176 162 122 103 112
315 313 308 304 302 301 300 299 297 295 293 290 289 287 284 280 275 272 271 271 270 270 271 269 266 265 265 267 270 271 271 271 270 270 268 259 248 243 241 241 242 242 244 248 248 244 244 245 246 247 245 243 239 237 238 239 237 233 227 223 220 219 218 214 209 208 208 209 216 221 219 220 213 201 189 181 186 197 192 185 182 170 141 116 113
318 315 312 310 309 308 306 303 299 296 293 291 289 287 284 281 277 273 271 270 270 271 271 269 266 265 266 266 268 270 271 270 268 267 267 260 249 244 241 239 241 241 243 247 245 240 239 241 244 245 244 243 240 237 236 236 236 232 228 223 220 220 218 214 211 211 214 217 221 223 220 221 218 204 191 183 187 198 197 192 189 178 159 136 124
320 317 315 315 315 313 310 307 305 301 298 294 290 286 283 280 277 273 270 269 269 270 271 269 266 265 265 267 268 269 271 270 267 265 266 261 250 243 241 241 241 241 244 245 239 235 235 237 241 242 242 243 241 238 234 231 233 232 229 225 221 219 217 215 214 213 216 221 222 222 219 219 217 205 195 188 189 197 202 200 195 188 175 157 143
321 319 319 319 318 316 314 312 311 308 303 299 294 289 285 281 277 273 269 267 268 270 272 271 268 264 264 265 267 270 270 268 264 264 266 262 252 245 243 242 242 242 245 242 235 234 236 237 239 240 241 241 239 238 234 230 231 231 228 225 222 219 215 216 218 216 219 221 220 222 216 210 211 204 196 192 192 195 202 207 203 198 192 181 168
321 321 322 323 321 318 317 317 316 313 308 304 301 298 293 288 281 274 268 264 264 268 270 271 269 266 263 261 265 269 268 265 263 263 264 260 254 248 243 241 243 241 238 237 234 235 236 237 238 239 240 240 238 237 235 231 230 229 227 224 222 218 215 217 219 218 220 219 218 220 211 205 207 202 197 198 198 196 198 205 209 208 207 200 193
325 325 325 323 321 320 320 321 321 318 314 311 310 309 304 297 290 280 271 264 261 264 267 270 270 268 264 260 262 265 266 266 265 262 260 258 254 248 241 239 240 237 233 234 235 232 232 234 236 236 237 238 236 235 234 232 229 228 226 223 221 218 217 218 219 218 219 219 217 219 213 209 211 204 199 202 203 202 201 205 211 214 214 211 208
326 326 324 322 321 323 324 325 324 323 320 316 315 316 312 306 300 291 279 266 260 261 265 268 267 266 265 264 262 263 266 266 265 263 258 253 250 244 239 237 235 234 234 236 236 234 232 232 233 233 233 235 233 232 234 233 230 227 226 222 219 218 218 218 218 217 220 219 215 216 212 211 216 214 206 204 206 207 207 209 214 216 214 215 215
326 324 323 323 325 327 328 328 327 326 323 320 319 318 316 312 309 302 289 272 262 261 265 267 265 264 264 265 264 264 266 263 260 260 258 256 251 240 235 236 234 233 233 234 236 235 233 233 234 232 232 233 231 229 232 233 230 227 225 222 219 219 218 217 218 218 220 219 215 215 212 211 220 220 210 206 208 210 213 217 220 219 218 218 219
325 324 323 326 329 330 331 331 329 326 324 322 320 317 317 316 315 311 301 285 272 268 268 268 266 265 263 263 264 264 267 266 262 258 258 262 253 234 231 237 237 236 234 233 234 234 233 233 234 233 234 234 230 229 232 232 229 227 226 224 220 219 219 217 218 219 219 218 216 215 214 215 220 218 216 219 216 213 218 223 224 223 222 222 222
325 325 326 329 332 334 334 333 331 329 327 325 324 320 317 315 313 310 305 293 282 276 274 272 271 269 265 265 267 268 268 269 267 260 258 263 250 229 229 235 237 238 237 235 234 234 232 232 233 234 234 233 229 228 231 230 228 227 226 224 220 218 220 218 218 220 219 218 217 215 214 215 213 214 224 234 226 218 220 221 223 227 227 226 225
326 327 329 331 335 337 337 336 335 334 331 330 333 330 322 315 310 306 300 293 286 280 277 277 276 274 270 269 271 271 269 267 267 262 258 259 248 231 231 235 237 240 239 238 238 236 233 230 233 237 236 234 230 229 231 230 228 228 227 225 220 218 218 218 219 220 219 218 217 214 214 213 208 208 220 233 230 225 225 224 226 231 231 231 228
327 329 331 333 337 339 338 338 337 336 336 335 338 339 333 324 314 308 304 299 294 290 288 286 283 280 276 274 273 273 271 266 264 262 256 251 244 237 236 237 239 240 239 239 240 238 235 230 229 234 237 235 232 231 231 229 226 227 227 225 221 218 217 217 219 221 221 219 217 215 214 213 209 204 210 223 228 226 228 230 229 228 232 237 233
328 330 331 334 339 341 341 340 337 337 339 338 337 340 340 337 329 320 317 316 312 307 302 295 290 284 279 276 274 272 271 267 262 263 260 250 241 238 238 238 240 241 240 241 239 236 237 234 230 232 234 233 231 231 232 228 225 227 227 224 221 219 218 217 220 223 224 220 217 215 215 214 212 209 211 219 225 224 226 231 230 228 233 239 237
327 330 332 335 341 343 342 342 338 337 339 339 337 337 338 339 338 332 330 332 330 324 315 306 299 291 285 281 278 273 269 265 263 264 262 254 244 239 236 237 240 239 239 240 237 234 238 238 232 230 230 228 227 228 229 228 225 226 226 223 221 221 221 220 221 224 224 222 219 217 217 216 214 214 216 221 225 224 226 229 230 232 238 239 238
326 330 333 336 340 343 344 344 341 337 338 339 338 338 337 336 336 333 333 334 334 333 329 321 314 305 295 287 282 273 266 264 263 261 259 260 257 244 235 237 241 239 237 237 235 237 240 237 231 228 224 221 223 225 227 228 226 224 224 222 220 222 224 223 223 224 225 224 222 220 220 219 216 216 219 222 223 222 224 227 229 233 238 240 239
325 330 334 335 338 342 345 346 344 340 339 339 339 341 339 336 334 332 333 332 332 333 331 327 327 325 313 297 285 276 270 265 259 252 248 256 264 251 236 236 239 237 235 234 233 237 238 232 229 227 221 218 221 222 225 228 224 221 223 222 220 221 223 224 224 225 225 225 224 223 223 222 218 216 218 220 221 221 224 227 231 233 236 239 241
324 329 333 334 335 339 344 347 345 343 341 340 340 343 341 339 338 337 336 335 334 333 329 328 335 339 335 325 313 299 287 271 257 252 245 244 258 260 246 242 241 236 233 232 234 236 232 226 224 222 219 220 221 220 224 225 220 220 223 221 220 222 223 222 222 224 226 226 224 223 223 222 220 218 218 219 219 221 224 226 229 233 236 240 243
323 327 330 332 333 336 340 344 345 344 342 337 339 342 344 343 342 342 343 343 341 338 335 337 341 341 340 341 341 338 328 302 274 272 263 247 253 260 247 245 248 242 234 232 234 233 227 222 220 217 216 217 217 218 224 226 222 223 225 222 221 224 225 221 220 223 226 227 225 223 223 223 222 220 221 221 220 222 225 225 226 231 235 240 245
322 326 329 331 332 333 335 340 342 343 341 337 339 344 346 346 343 344 349 350 348 346 343 344 345 344 345 346 347 348 343 332 313 302 287 267 263 262 247 247 250 240 236 238 236 228 220 214 214 213 212 212 214 217 222 227 226 227 228 226 224 226 225 222 220 221 224 225 225 223 223 224 223 222 223 224 224 224 226 227 228 231 235 240 245
321 324 328 331 332 331 332 337 340 340 339 338 341 344 347 348 344 344 349 349 348 346 343 343 343 348 355 355 350 347 339 331 323 319 310 288 277 275 268 262 252 239 243 246 236 223 215 212 212 213 212 213 219 221 222 226 227 228 230 228 225 224 223 222 222 223 225 225 224 222 224 227 227 226 226 226 227 228 228 228 228 230 234 239 243
320 324 327 330 332 332 334 338 338 336 336 339 341 341 343 345 343 343 346 346 344 344 343 340 338 340 348 353 354 352 346 336 328 325 323 308 297 296 289 273 250 233 233 235 223 213 214 217 217 217 216 216 222 226 226 226 227 229 228 226 225 223 220 222 227 228 226 225 224 225 227 229 229 228 228 228 229 230 230 229 228 229 232 236 239
320 324 326 328 330 334 337 340 338 334 333 337 340 338 335 337 340 341 343 343 342 342 342 339 334 331 333 338 345 350 347 339 338 341 332 317 312 310 307 296 256 220 205 214 218 214 215 218 218 221 222 222 227 231 231 230 230 231 229 226 227 225 223 226 231 230 226 226 226 228 230 231 230 229 228 228 229 229 229 228 228 229 231 234 236
320 323 325 326 328 333 339 342 340 335 333 335 335 333 330 331 337 339 340 341 339 337 338 337 333 329 325 326 330 334 334 331 336 341 334 326 324 313 303 300 271 228 214 226 229 222 217 218 222 227 231 233 237 238 237 237 237 238 234 230 226 223 222 226 229 229 229 230 230 230 230 230 229 229 228 230 231 230 229 227 227 227 230 232 234
321 322 323 325 328 332 337 341 340 338 339 337 334 332 330 329 333 334 334 335 333 332 333 332 330 327 322 322 324 325 325 324 325 326 322 318 316 313 307 295 272 250 244 244 237 229 226 225 228 233 238 243 245 244 243 242 240 238 235 232 227 221 220 222 225 227 229 231 232 232 230 227 225 225 227 227 227 226 225 224 224 225 227 230 233
321 322 322 324 328 331 335 341 343 342 342 340 338 337 333 328 326 324 322 323 323 323 323 324 325 324 319 316 317 319 320 317 312 309 309 305 294 287 289 289 279 263 254 253 249 242 235 232 234 237 239 242 243 244 244 240 238 237 236 235 230 225 225 225 227 229 230 230 231 230 229 226 223 223 223 223 223 223 223 222 222 224 226 230 234
319 320 322 323 326 330 335 343 347 347 347 347 347 344 340 338 335 329 323 320 317 316 316 318 323 324 320 315 310 311 313 314 309 301 297 297 289 274 263 265 265 260 253 250 251 250 243 241 243 242 241 240 239 242 243 240 237 235 236 235 230 226 226 226 229 234 234 231 229 226 227 226 224 223 223 223 224 224 224 225 225 227 229 233 237
317 319 322 325 329 334 340 345 348 350 353 355 356 353 346 343 341 338 338 335 330 327 321 317 322 324 321 317 314 315 315 312 304 294 287 287 288 282 266 256 251 252 252 248 249 251 248 246 247 246 245 243 239 237 238 240 238 235 237 237 229 223 224 224 227 231 231 228 226 225 226 227 225 225 225 225 227 228 228 230 230 231 233 235 238
318 321 325 329 335 339 342 344 348 352 355 356 0 1 356 349 342 337 340 342 342 341 336 329 326 322 316 312 312 317 322 317 301 288 281 278 281 285 279 268 256 254 256 252 249 251 253 254 255 254 253 253 249 243 240 241 240 237 238 236 226 220 221 220 221 225 226 225 223 223 225 226 226 227 227 228 229 230 231 233 235 237 239 240 242
320 323 328 334 339 341 342 345 350 354 355 356 359 2 1 359 355 349 345 343 342 342 341 338 334 326 318 312 308 311 319 323 314 300 289 281 279 282 283 278 269 267 272 270 262 259 259 261 263 264 264 264 261 257 251 248 245 241 238 232 221 216 218 217 217 220 222 222 220 220 222 224 225 227 228 230 232 233 235 236 238 241 243 244 245
323 328 334 338 340 342 345 349 351 353 354 356 357 357 356 355 354 352 349 344 342 342 342 341 341 337 330 321 314 310 308 311 319 316 307 301 300 296 289 281 274 272 281 284 274 265 261 261 263 266 269 269 269 267 261 254 248 244 240 233 221 215 215 218 219 221 224 224 222 220 221 222 225 227 229 231 233 235 237 240 242 245 247 247 246
329 333 335 337 339 343 347 349 348 348 349 351 352 352 352 350 347 346 342 337 336 338 339 340 341 340 337 331 323 313 297 283 287 299 305 311 316 314 307 296 284 274 270 274 275 271 265 261 260 262 265 268 271 273 269 259 247 238 237 238 232 222 217 218 219 220 222 224 224 223 223 224 226 229 231 233 235 237 240 244 247 250 251 252 251
333 334 335 338 342 345 346 346 346 347 348 349 349 350 350 350 348 345 341 336 334 334 335 334 333 332 334 334 330 322 308 292 283 283 287 294 301 308 311 309 302 294 285 279 280 281 274 265 262 263 265 268 268 267 266 263 255 244 240 242 240 231 225 224 224 223 223 224 224 225 225 225 227 230 232 233 235 239 243 245 247 249 251 253 253
339 340 343 346 348 348 347 349 351 353 353 351 351 351 351 351 351 349 347 345 342 340 337 335 333 331 331 330 328 325 321 313 302 294 291 290 292 294 297 300 302 303 302 293 283 278 276 273 267 260 252 249 254 256 255 253 252 253 251 246 240 235 233 234 232 229 230 231 228 226 226 227 229 232 235 237 240 243 246 248 249 249 250 250 251